Home > Weather > Völkermarkt > Past weeks

Flag for Austria Past Weather in Völkermarkt, Carinthia, Austria — Yesterday and Last 2 Weeks

Now
72 °F

Passing clouds.


Feels Like: 77 °F
Forecast: 54 / 83 °F
Wind: N/A

Location: Klagenfurt-Flughafen

Current Time: Jun 28, 2016 at 1:29:53 PM

Latest Report: Jun 28, 2016 at 12:00 PM


Visibility: 22 mi

Pressure: 30.05 "Hg

Humidity: 41%

Dew Point: 47 °F

Location of VölkermarktLocation

Past Weather in Völkermarkt — Graph

°F

Völkermarkt Temperature Yesterday

Maximum temperature yesterday: 67 °F (at 12:00 AM)
Minimum temperature yesterday: 58 °F (at 11:00 PM)
Average temperature yesterday: 63 °F

High & Low Weather Summary for the Past Weeks

 TemperatureHumidityPressure
High88 °F (Jun 24, 4:00 PM)97% (Jun 21, 4:00 AM)30.28 "Hg (Jun 21, 4:00 AM)
Low52 °F (Jun 18, 6:00 AM)32% (Jun 17, 2:00 PM)29.50 "Hg (Jun 14, 3:00 PM)
Average67 °F72%29.94 "Hg
* Reported Jun 13 12:00 PM — Jun 28 12:00 PM, Völkermarkt, Weather by CustomWeather, © 2016

Note: Actual official high and low records may vary slightly from our data, if they occured in-between our weather recording intervals... More about our weather records

Advertising

Völkermarkt Weather History for the Previous 24 Hours

Scroll right to see more
 ConditionsComfort  
Time TempWeatherWind HumidityBarometerVisibility
12:00 PM
Tue, Jun 28
72 °FPassing clouds.N/A41%30.05 "Hg22 mi
11:00 AM69 °FPassing clouds.N/A60%30.06 "Hg25 mi
10:00 AM67 °FPassing clouds.N/A66%30.09 "Hg15 mi
9:00 AM61 °FPassing clouds.N/A77%30.11 "Hg22 mi
8:00 AM60 °FPassing clouds.N/A80%30.12 "Hg28 mi
7:00 AM54 °FPassing clouds.N/A85%30.14 "Hg19 mi
6:00 AM52 °FPassing clouds.N/A91%30.14 "Hg17 mi
5:00 AM53 °FPassing clouds.N/A92%30.13 "Hg25 mi
4:00 AM54 °FLow clouds.N/A91%30.13 "Hg25 mi
3:00 AM54 °FLow clouds.N/A89%30.14 "Hg25 mi
2:00 AM54 °FPassing clouds.N/A91%30.14 "Hg28 mi
1:00 AM55 °FCool.N/A91%30.14 "Hg28 mi
12:00 AM56 °FCool.N/A89%30.13 "Hg28 mi
11:00 PM
Mon, Jun 27
58 °FPassing clouds.N/A87%30.11 "Hg31 mi
10:00 PM60 °FPassing clouds.N/A80%30.10 "Hg31 mi
9:00 PM64 °FPassing clouds.N/A74%30.06 "Hg19 mi
8:00 PM67 °FPartly sunny.N/A62%30.04 "Hg25 mi
7:00 PM66 °FPartly sunny.3 mph63%30.04 "Hg28 mi
6:00 PM64 °FOvercast.N/A73%30.06 "Hg19 mi
5:00 PM62 °FOvercast.5 mph76%30.07 "Hg28 mi
4:00 PM62 °FRain showers. Overcast.3 mph73%30.07 "Hg25 mi
3:00 PM63 °FOvercast.N/A69%30.08 "Hg25 mi
2:00 PM64 °FPartly sunny.3 mph69%30.09 "Hg25 mi
1:00 PM61 °FOvercast.6 mph77%30.10 "Hg22 mi
Weather by CustomWeather, © 2016

See weather overviewHow to use our weather pages